NOAA 16 DEB, 41069

Orbit data source: Space-Track

NOAA 16 DEB, 41069 is space debris in SSO originally from a launch on Thu, 21 Sep 2000 UTC launched from the Air Force Western Test Range (AFWTR). Debris objects in space refer to the collection of defunct objects orbiting the Earth. Examples of debris include non-operational satellites, rocket bodies, and fragments generated from explosions, collisions, or faulty payload assembly.

Loading next visibility...
Identifier
41069, 2000-055AC
Orbit
SSO
Country
Flag of USUS
Related business
Manufacturer
Unknown
Mission
Spacecraft
Bus & Motor
Unknown
Mass
Unknown
Launch date (UTC)
2000-09-21 (25 years ago)
Launch vehicle
Unknown
Launch site
Air Force Western Test Range (AFWTR)
Object type
Payload
Rocket body
Debris
Shape & HBR
Unknown
Radar Cross Section
Small (<0.1 m²)

Expand to show TLE details & history
Last TLE update: 23 hours ago

TLE from 23 hours ago
0 NOAA 16 DEB
1 41069U 00055AC  25259.79175662  .00001736  00000-0  51194-3 0  9996
2 41069  98.5891   5.5354 0109552 278.0807  80.7965 14.41508425513219
Epoch: 2025-09-16T19:00Z
TLE epoch observation values (Epoch: 2025-09-16T19:00:07.771Z)
Latitude
-0.00002°
Longitude
84.52604°
Altitude
744.805 km
Speed
7.488 km/s
True Right ascension
00h 22m 08s
True Declination
0° 00' 00"
Sunlit
Object was in full shadow at epoch
Visualization orbit readout
Latitude
Unknown
Longitude
Unknown
Altitude
Unknown
Speed
Unknown
Apparent Right ascension
Unknown
Apparent Declination
Unknown
Sunlit
N/A
Visualization observer readout
Local Sidereal Time
10:43:44
Azimuth
Unknown
Elevation
Unknown
Doppler factor
Unknown
Orbital elements
Apogee altitude
828.74 km
Perigee altitude
672.545 km
Semi-major axis
7,128.78 km
Eccentricity
0.01096
Inclination
98.5891°
RAAN
5.5354°
Arg. of periapsis
278.0807°
True anomaly
82.03834°
Mean anomaly
80.7965°
Eccentric anomaly
81.41716°
Mean motion
3.60596 °/min
Orbital period
99.83 mins
BSTAR
0.00051194
Loading maneuver chart data...
Computing Atmospheric mass density...
Loading historical data...
Loading historical data...
Loading historical data...
Loading historical data...
Loading historical data...
Loading historical data...
Loading historical data...

Documentation

Showing up to 5 results
|